This demonstration page uses our WeatherBlox Daily Observations layout. Learn more.

Left ArrowRight Arrow

30.21309, -93.2044

Hourly Observations for May 22, 2022

Temp ( °F °C ) Dew Point ( °F °C ) Humidity (%) Winds ( mph kmh ) Pressure ( in mb ) Visibility ( mi km ) Precip ( " mm )
12:15 am 00:15 Clear 76 24.4 72 22.3 88 88 SSE 12 19 29.99 1016 10 16 0.00 0.00
12:35 am 00:35 Clear 76 24.6 72 22.3 87 87 S 10 17 29.98 1015 10 16 0.00 0.00
12:55 am 00:55 Clear 76 24.4 72 22.3 88 88 S 8 13 29.97 1015 10 16 0.00 0.00
1:15 am 01:15 Clear 76 24.6 72 22.4 88 88 S 9 15 29.97 1015 10 16 0.00 0.00
1:35 am 01:35 Clear 77 25.2 73 22.6 86 86 SW 7 11 29.97 1015 10 16 0.00 0.00
1:55 am 01:55 Clear 77 25.2 73 22.7 86 86 SW 3 6 29.98 1015 10 16 0.00 0.00
2:15 am 02:15 Clear 75 23.9 72 22.2 90 90 Calm 29.99 1016 10 16 0.00 0.00
2:35 am 02:35 Clear 76 24.4 72 22.3 88 88 Calm 29.99 1016 10 16 0.00 0.00
2:55 am 02:55 Clear 74 23.6 72 22.1 91 91 ENE 5 7 29.99 1016 10 16 0.00 0.00
3:15 am 03:15 Clear 76 24.2 73 22.5 90 90 NE 7 11 30.01 1016 10 16 0.00 0.00
3:35 am 03:35 Partly Cloudy 75 24.1 72 22.4 90 90 ENE 8 13 30.01 1016 10 16 0.00 0.00
3:55 am 03:55 Cloudy 76 24.3 72 22.4 89 89 NE 9 15 30.03 1017 10 16 0.00 0.00
4:15 am 04:15 Cloudy 76 24.5 72 22.4 88 88 NNE 10 17 30.03 1017 10 16 0.00 0.00
4:35 am 04:35 Cloudy 76 24.5 72 22.4 88 88 NE 8 13 30.04 1017 10 16 0.00 0.00
4:55 am 04:55 Cloudy 76 24.4 72 22.3 88 88 NNE 13 20 30.04 1017 10 16 0.00 0.00
5:15 am 05:15 Cloudy with Mist and Fog 75 24 72 22.2 90 90 NNE 10 17 30.06 1018 7 11 0.01 0.25
5:35 am 05:35 Cloudy 73 22.8 69 20.5 87 87 N 12 19 30.05 1018 10 16 0.01 0.25
6:00 am 06:00 Cloudy with Thunderstorms 72 22 68 20 88 88 N 21 33 30.07 1018 10 16 0.00 0.00
6:55 am 06:55 Mostly Cloudy with Thunderstorms 70 21 66 19 88 88 NNW 16 26 30.14 1021 7 11 0.00 0.00
7:50 am 07:50 Cloudy with Thunderstorms 70 21 66 19 88 88 NNE 14 22 30.13 1020 7 11 0.00 0.00
8:47 am 08:47 Mostly Cloudy 72 22 68 20 88 88 NE 10 17 30.16 1021 10 16 0.00 0.00
9:55 am 09:55 Mostly Cloudy 70 21 66 19 88 88 E 12 19 30.17 1022 10 16 0.00 0.00
10:45 am 10:45 Mostly Cloudy 72 22 66 19 83 83 ENE 13 20 30.12 1020 10 16 0.00 0.00
11:46 am 11:46 Mostly Sunny 72 22 66 19 83 83 E 17 28 30.08 1019 10 16 0.00 0.00
12:47 pm 12:47 Mostly Sunny 75 24 64 18 69 69 E 17 28 30.04 1017 10 16 0.00 0.00
1:45 pm 13:45 Mostly Sunny 79 26 64 18 61 61 NE 12 19 30.07 1018 10 16 0.00 0.00
2:50 pm 14:50 Mostly Sunny 81 27 64 18 58 58 NNE 8 13 30.04 1017 10 16 0.00 0.00
3:50 pm 15:50 Mostly Sunny 84 29 64 18 51 51 N 8 13 30.00 1016 10 16 0.00 0.00
4:50 pm 16:50 Mostly Sunny 84 29 63 17 48 48 NNE 12 19 30.02 1017 10 16 0.00 0.00
5:50 pm 17:50 Mostly Sunny 84 29 66 19 55 55 N 16 26 30.03 1017 10 16 0.00 0.00
6:50 pm 18:50 Mostly Sunny 79 26 66 19 65 65 N 9 15 30.02 1017 10 16 0.00 0.00
7:50 pm 19:50 Mostly Sunny 77 25 66 19 69 69 N 7 11 30.03 1017 10 16 0.00 0.00
8:45 pm 20:45 Mostly Cloudy 75 24 66 19 74 74 N 8 13 30.03 1017 10 16 0.00 0.00
9:45 pm 21:45 Mostly Clear 73 23 66 19 78 78 NNE 9 15 30.05 1018 10 16 0.00 0.00
10:15 pm 22:15 Clear 74 23.1 67 19.2 79 79 NNE 13 20 30.06 1018 10 16 0.00 0.00
10:35 pm 22:35 Clear 73 23 67 19.2 79 79 NNE 10 17 30.07 1018 10 16 0.00 0.00
10:55 pm 22:55 Clear 73 22.7 66 19.1 80 80 NNE 9 15 30.08 1019 10 16 0.00 0.00
11:15 pm 23:15 Clear 72 22.4 67 19.2 82 82 NNE 9 15 30.08 1019 10 16 0.00 0.00
11:35 pm 23:35 Mostly Cloudy 72 22.4 67 19.3 83 83 NNE 7 11 30.08 1019 10 16 0.00 0.00
11:55 pm 23:55 Mostly Cloudy 72 22.3 67 19.3 83 83 NNE 9 15 30.07 1018 10 16 0.00 0.00

Powered by AerisWeather